Regional Weather Roundup
Issued by NWS Boston, MA

Home | Current Version | Previous Version | Text Only | Print | Product List | Glossary On
Versions: 1 2 3 4 5 6 7 8 9 10 11 12 13 14 15 16 17 18 19 20 21 22 23 24 25 26 27 28 29 30 31 32 33 34 35 36 37 38 39 40 41 42 43 44 45 46 47 48 49 50
000
ASUS41 KBOX 270810
RWRBOX

REGIONAL WEATHER ROUNDUP
NATIONAL WEATHER SERVICE TAUNTON MA
400 AM EDT WED AUG 27 2014

NOTE:  "FAIR" INDICATES FEW OR NO CLOUDS BELOW 12,000 FEET WITH NO
SIGNIFICANT WEATHER AND/OR OBSTRUCTIONS TO VISIBILITY.  THE FOLLOWING
OBSERVATION LOCATIONS DO NOT REPORT PRESENT WEATHER...PROVINCETOWN...
SMITHFIELD...BLOCK ISLAND...KEENE...AND OXFORD.

MAZALL-270900-
EASTERN MASSACHUSETTS

CITY           SKY/WX    TMP DP  RH WIND       PRES   REMARKS
BOSTON         CLEAR     69  58  67 SW15      29.99
BEVERLY        CLEAR     67  60  78 SW7       29.98F
LAWRENCE       CLEAR     67  62  84 S6        30.00F
BEDFORD        CLEAR     65  61  87 SW8       29.98F
BLUE HILL        N/A     64  56  75 SW13      30.01F
NORWOOD        CLEAR     57  54  89 CALM      30.01F
MARSHFIELD     CLEAR     66  59  77 W7        30.02F
PLYMOUTH       CLEAR     62  58  86 S5        30.03S
TAUNTON        CLEAR     59  57  93 CALM      30.02S
NEW BEDFORD    CLEAR     61  60  97 SW3       30.02F
$$

MAZALL-270900-
CAPE COD AND THE ISLANDS

CITY           SKY/WX    TMP DP  RH WIND       PRES   REMARKS
FALMOUTH       CLEAR     64  64 100 SW6       30.03F FOG
HYANNIS          N/A     66  64  93 SW6       30.01F
CHATHAM        CLEAR     66  63  90 SW3       30.03F
PROVINCETOWN   CLEAR     66  61  82 MISG      30.01F
NANTUCKET      FOG       63  61  93 SW3       30.03S VSB 1/4
MARTHAS VNYRD  FOG       58  58 100 SW3       30.03S VSB 3/4
$$

MAZALL-270900-
CENTRAL AND WESTERN MASSACHUSETTS

CITY           SKY/WX    TMP DP  RH WIND       PRES   REMARKS
WORCESTER      CLEAR     65  60  84 W13       30.03F
FITCHBURG      CLEAR     71  62  73 W9        30.00F
ORANGE         CLEAR     62  60  93 CALM      30.02F
SPRINGFIELD    CLEAR     64  62  94 S3        30.01F
WESTFIELD      CLEAR     65  62  90 S3        30.01F
NORTH ADAMS    PTCLDY    58  57  97 CALM      30.02F
PITTSFIELD     CLEAR     62  60  93 CALM      30.03F
$$

RIZALL-270900-
RHODE ISLAND

CITY           SKY/WX    TMP DP  RH WIND       PRES   REMARKS
PROVIDENCE     CLEAR     64  58  80 SW3       30.03S
NEWPORT        CLEAR     66  60  81 CALM      30.03F
BLOCK ISLAND   CLEAR     66  63  88 W8        30.03F
SMITHFIELD     CLEAR     63  54  72 SW5       30.02F
WESTERLY       CLEAR     60  58  92 CALM      30.04F
$$

CTZALL-270900-
CONNECTICUT

CITY           SKY/WX    TMP DP  RH WIND       PRES   REMARKS
BRADLEY INTL   PTCLDY    65  61  87 S6        30.01F
HARTFORD       CLEAR     66  62  87 S6        30.02F
BRIDGEPORT     CLEAR     70  64  81 W3        30.03F
DANBURY        CLEAR     64  60  87 CALM      30.05F
GROTON         CLEAR     61  60  97 CALM      30.02F
NEW HAVEN      CLEAR     71  64  78 CALM      30.03F
CHESTER        FAIR      64  63  94 W3        30.05S
MERIDEN        CLEAR     62  59  90 CALM      30.03F
WILLIMANTIC    CLEAR     61  59  93 CALM      30.03F
OXFORD         CLEAR     63  57  82 CALM      30.06F
$$

MEZ002-015-021-024-NHZ003-005-008-011-012-014-VTZ005-008-270900-
NORTHERN NEW ENGLAND

CITY           SKY/WX    TMP DP  RH WIND       PRES   REMARKS
PORTLAND ME    CLEAR     68  63  84 SW6       29.94F
BANGOR ME      CLEAR     63  60  90 S6        29.92S
CONCORD NH     PTCLDY    65  63  93 S3        29.97F
MANCHESTER NH  PTCLDY    69  63  81 S6        29.97F
NASHUA NH      PTCLDY    66  64  93 CALM      29.99F
PORTSMOUTH NH  MOCLDY    69  64  84 SW9       29.95F
JAFFREY NH     CLEAR     65  63  93 S5        30.03F
KEENE NH       CLEAR     61  54  77 CALM      30.01F
BURLINGTON VT  CLOUDY    74  59  59 S12G18    29.91F
MT. WASHINGTON FOG       50  50 100 W46         N/A  VSB 0
$$

NYZ052-076-270900-
EASTERN NEW YORK

CITY           SKY/WX    TMP DP  RH WIND       PRES   REMARKS
ALBANY         MOCLDY    69  62  78 S7        29.99F
NEW YORK CITY  CLEAR     74  63  68 W7        30.03F
$$

ANZALL-270900-
MARINE OBSERVATIONS

STATION/POSITION TIME  TEMP    WIND        PRES    VSBY  WAVE
                       AIR SEA DIR/SP/G                  HT/PER
                 (UTC) (F)     (DEG/KT/KT) (MB)    (MI)  (FT/S)
BOSTON BUOY      0750   68 67  240/ 12/ 14 1015.9F         2/ 8
BUZZARDS BAY     0700          250/  9/ 10 1018.0F
NANTUCKET SOUND  0750   69 71  260/ 10/ 14 1016.5F         1/ 7
MASS BAY-STELLWA 0704   69 68  240/ 14/ 16   N/A    1 7/8  3/ 8
ISLE OF SHOALS   0700   68     220/ 16/ 17 1014.4F
S OF BLOCK IS    0708      69                N/A           3/ 9
$$

......................KEY.........................
  SKY/WX - SKY CONDITION/PRESENT WEATHER
  TMP    - TEMPERATURE IN FAHRENHEIT
  DWPT   - DEWPOINT IN FAHRENHEIT
  RH     - RELATIVE HUMIDITY IN PERCENT
  WIND   - DIRECTION AND SPEED IN MPH
  PRES   - MEAN SEA LEVEL PRESSURE IN INCHES OF HG
  WCI    - WIND CHILL INDEX
  VSB    - VISIBILITY IN MILES
  HX     - HEAT INDEX
  TC     - TEMPERATURE IN CELSIUS
  VRB    - VARIABLE WIND DIRECTION
  N/A    - NOT AVAILABLE



USA.gov is the U.S. government's official web portal to all federal, state and local government web resources and services.